Voltar ao catálogo

BREEZE-M R/B

AtivoHEO
NORAD 31104·ROCKET BODY·🇷🇺 Russia

Lançado Apr 9, 2007 de Baikonur Cosmodrome

Loading…

Próximas Passagens (próximas 24 horas)

TLE

AtualizadoSource: Space-Track

Época: Sep 14, 2026, 12:29 UTC

1 31104U 07009C   26257.52053535 -.00000054  00000-0  00000+0 0  9994
2 31104  11.8649 266.4683 5661832 130.7649 286.9206  1.96445417139474

Acompanhe BREEZE-M R/B em tempo real com AllMySat

Download on the App Store